Regional Weather Roundup
Issued by NWS

Home | Current Version | Previous Version | Text Only | Print | Product List | Glossary On
Versions: 1 2 3 4 5 6 7 8 9 10 11 12 13 14 15 16 17 18 19 20 21 22 23 24 25 26 27 28 29 30 31 32 33 34 35 36 37 38 39 40 41 42 43 44 45 46 47 48 49 50
000
ASUS43 KMPX 280010
RWRMN
WEATHER ROUNDUP FOR MINNESOTA
NATIONAL WEATHER SERVICE TWIN CITIES/CHANHASSEN MN
700 PM CDT WED JUL 27 2016


NOTE: "FAIR" INDICATES FEW OR NO CLOUDS BELOW 12,000 FEET WITH NO
SIGNIFICANT WEATHER AND/OR OBSTRUCTIONS TO VISIBILITY. N/A MEANS
CURRENT SKY AND/OR WEATHER CONDITIONS ARE NOT AVAILABLE.

MNZ060>063-068>070-280100-
   Twin Cities Metro

CITY           SKY/WX    TMP DP  RH WIND       PRES   REMARKS
TWIN CITIES    PTSUNNY   74  65  73 N8        29.94S
6HR MIN TEMP:  71; 6HR MAX TEMP:  79; 6HR PCP:  0.47;

ST PAUL        CLOUDY    72  66  81 NW3       29.94S
CRYSTAL        PTSUNNY   73  63  70 N7        29.93S
BLAINE         PTSUNNY   73  68  83 N9        29.95S
LAKEVILLE      CLOUDY    72  70  94 NW6       29.93F
EDEN PRAIRIE   MOSUNNY   76  66  71 N7        29.93S
6HR MIN TEMP:  72; 6HR MAX TEMP:  80; 6HR PCP:  0.13;

LAKEVILLE      CLOUDY    72  70  94 NW6       29.93F
SOUTH ST PAUL  CLOUDY    73  66  80 NW8       29.93S
LAKE ELMO      CLOUDY    72  68  88 NW7       29.95S
$$
MNZ001>005-007-008-013>017-022>024-027-028-280100-
   Northwest Minnesota

CITY           SKY/WX    TMP DP  RH WIND       PRES   REMARKS
BEMIDJI        SUNNY     73  61  64 E8        30.03S
HALLOCK        SUNNY     73  59  60 N12       30.05S
ROSEAU         SUNNY     73  63  68 E10       30.05S
WARROAD        SUNNY     73  63  68 NE14      30.07S
THIEF RVR FALL MOSUNNY   75  60  59 NE12      30.04S
CROOKSTON      MOSUNNY   75  61  60 N16G22    30.02F
FOSSTON        CLOUDY    73  63  68 CALM      30.03S
DETROIT LAKES  SUNNY     75  57  53 N5        30.01F
MOORHEAD       SUNNY     75  61  60 N10       30.02R
PARK RAPIDS    CLOUDY    73  61  65 NE12      30.01F
MAHNOMEN       MOCLDY    72  63  74 E6        30.01S
$$
MNZ006-009>011-018-025>026-280100-
   North Central Minnesota

CITY           SKY/WX    TMP DP  RH WIND       PRES   REMARKS
BAUDETTE       SUNNY     74  58  57 N10       30.05R
FLAG ISLAND    SUNNY     72  55  56 N14       30.07R
INTL FALLS     SUNNY     74  54  49 NE9       30.04R
6HR MIN TEMP:  73; 6HR MAX TEMP:  78;

WASKISH        MOSUNNY   75  63  64 CALM      30.03S
BIG FORK       PTSUNNY   73  63  68 CALM      30.03F
LONGVILLE      MOSUNNY   72  63  73 NE5       30.02S
GRAND RAPIDS   CLOUDY    69  61  75 NE3       30.05S
CRANE LAKE     MOSUNNY   72  57  60 CALM      30.04F
ORR            MOSUNNY   73  57  56 CALM      30.01S
COOK           CLOUDY    72  63  73 CALM      30.04S
WALKER         MOCLDY    70  62  75 NE5       30.02F
$$
MNZ012-019>021-037-280100-
   Northeast Minnesota

CITY           SKY/WX    TMP DP  RH WIND       PRES   REMARKS
DULUTH         CLOUDY    65  58  78 NE7       30.03F
6HR MIN TEMP:  62; 6HR MAX TEMP:  66; 6HR PCP: TRACE;

ELY            CLOUDY    70  61  73 SE3       30.03S
HIBBING        CLOUDY    66  65  96 CALM      30.04R
EVELETH        CLOUDY    68  61  78 CALM      30.05S
DULUTH HARBOR  CLOUDY    63  61  94 NE15      30.02S
TWO HARBORS    MOSUNNY   70  63  78 E3        30.01S
SILVER BAY     CLOUDY    64  57  77 NE3       30.02F
GRAND MARAIS     N/A     65  54  67 CALM      30.02S
$$
MNZ029>031-032-039>041-046>048-054>057-064-280100-
   West Central Minnesota

CITY           SKY/WX    TMP DP  RH WIND       PRES   REMARKS
FERGUS FALLS   SUNNY     73  57  56 NW14      30.01S
WHEATON        SUNNY     79  63  57 NW12G17   30.02S
MORRIS         SUNNY     79  59  50 N12G17    29.99R
ALEXANDRIA     SUNNY     76  61  59 N8        30.00F
ELBOW LAKE     FAIR      74  60  60 W10       30.01R
WADENA         SUNNY     73  63  68 NE6       29.99F
GLENWOOD       SUNNY     75  63  64 N9        29.99S
APPLETON       SUNNY     81  59  47 N12       29.98S
BENSON         SUNNY     79  61  53 NE9       29.98R
ORTONVILLE     SUNNY     79  57  47 N10       30.00S
MADISON        SUNNY     79  61  53 N13       29.99S
WILLMAR        FAIR      77  64  65 N9        29.98R
$$
MNZ033>034-036-042>043-049>051-058-059-280100-
   Central Minnesota

CITY           SKY/WX    TMP DP  RH WIND       PRES   REMARKS
ST CLOUD       MOSUNNY   74  65  73 N8        29.96F
6HR MIN TEMP:  70; 6HR MAX TEMP:  78; 6HR PCP: TRACE;

SAUK CENTRE    FAIR      75  62  64 N10       29.98S
PAYNESVILLE    SUNNY     75  62  63 N12G17    29.96F
AITKIN         CLOUDY    70  61  73 NE5       30.01S
PINE RIVER     MOSUNNY   72  63  73 E7        30.04F
BRAINERD       MOSUNNY   69  63  81 NE12      30.00F
STAPLES        PTSUNNY   73  63  68 NE6       29.99S
LONG PRAIRIE   FAIR      73  63  68 NW9       29.98F
LITTLE FALLS   MOSUNNY   70  63  78 NE7       29.98F
LITCHFIELD     SUNNY     77  66  69 N10       29.96S
BUFFALO        MOSUNNY   73  65  77 N9        29.96S
MAPLE LAKE     MOSUNNY   73  66  80 NE7       29.97S
HUTCHINSON     PTSUNNY   78  69  75 NE10      29.95F
$$
MNZ037-044-045-052-053-280100-
   East Central Minnesota

CITY           SKY/WX    TMP DP  RH WIND       PRES   REMARKS
PRINCETON      PTSUNNY   72  64  78 N10       29.97F
MORA           CLOUDY    63  61  94 N6        30.01S
CAMBRIDGE      CLOUDY    68  61  77 N8        29.95F
RUSH CITY      RAIN      67  65  93 NE6       29.97S
MOOSE LAKE     CLOUDY    61  57  88 NE6       30.00S
HINCKLEY       DRIZZLE   63  63 100 N8        29.99S
CLOQUET        CLOUDY    64  55  72 NE5       30.03S
MCGREGOR       CLOUDY    68  59  73 E7        30.03S
$$
MNZ071>073-080-081-089-090-097-098-280100-
   Southwest Minnesota

CITY           SKY/WX    TMP DP  RH WIND       PRES   REMARKS
MONTEVIDEO     SUNNY     79  63  57 NE12G20   30.00R
GRANITE FALLS  MOSUNNY   80  65  59 NW13      29.99R
CANBY          SUNNY     78  63  60 NE8       30.01S
MARSHALL       SUNNY     78  64  61 N14       29.98S
REDWOOD FALLS  PTSUNNY   78  64  61 N10       29.96R
OLIVIA         MOSUNNY   77  64  65 NE12      29.96S
PIPESTONE      MOSUNNY   79  63  57 N8        30.01R
WINDOM         SUNNY     77  64  65 N16       29.97S
WORTHINGTON    SUNNY     78  65  63 N12       29.99S
JACKSON        MOSUNNY   79  63  57 VRB9G17   29.97S
TRACY          SUNNY     78  67  69 N8G16     29.99R
SLAYTON        SUNNY     78  65  63 N9G16     30.01R
$$
MNZ065>067-074>077-082>085-091>093-280100-
   South Central Minnesota

CITY           SKY/WX    TMP DP  RH WIND       PRES   REMARKS
MANKATO        CLOUDY    73  64  73 N9        29.95S
NEW ULM        SUNNY     73  66  78 NE8       29.95S
ST JAMES       PTSUNNY   73  63  68 NW7       29.95F
FAIRMONT       SUNNY     81  64  57 NW9       29.93F
GLENCOE        SUNNY     76  69  79 N3        29.94F
FARIBAULT      CLOUDY    72  68  88 CALM      29.94F
OWATONNA       CLOUDY    72  66  83 CALM      29.95F
WASECA         PTSUNNY   72  66  83 NE10      29.96S
ALBERT LEA     CLOUDY    73  72  94 SE6       29.95S
$$
MNZ078>079-086>088-094>096-280100-
   Southeast Minnesota

CITY           SKY/WX    TMP DP  RH WIND       PRES   REMARKS
ROCHESTER      LGT RAIN  73  70  90 S3        29.94F
6HR MIN TEMP:  73; 6HR MAX TEMP:  81; 6HR PCP: TRACE;

RED WING       CLOUDY    72  68  88 CALM      29.90F
STANTON        CLOUDY    72  68  88 SW5       29.92F
DODGE CENTER   LGT RAIN  68  66  94 N8        29.95F
WINONA         MOSUNNY   79  64  61 SW3       29.92F
AUSTIN         DRIZZLE   73  66  78 NW5       29.94S
PRESTON        CLOUDY    75  66  73 W3        29.96F
$$
ABBREVIATIONS USED IN REMARKS
   TC - TEMPERATURES IN CELSIUS
  WCI - WIND CHILL INDEX
   HX - HEAT INDEX
  VSB - VISIBILITY
$$



USA.gov is the U.S. government's official web portal to all federal, state and local government web resources and services.